Simultaneous Nadir Overpasses (SNOs) Predictions

Prediction of SNOs between TERRA and METOP-C Satellite Orbit:

Table of predicted SNOs for the next 14.0 days since TLE Epoch: 1/24/2025
Index Date (TERRA) Time (TERRA) Lat,Lon (TERRA) SZA (TERRA ) Date (METOP-C) Time (METOP-C) Lat,Lon (METOP-C) SZA (METOP-C ) Distance(km) Time Diff (sec)
1 01/26/2025 09:43:15 -45.12,-174.59 110.12 01/26/2025 09:43:17 -45.07,-174.26 110.29 26.34 2
2 01/26/2025 10:26:03 67.85, 6.75 87.55 01/26/2025 10:27:16 67.69, 7.73 87.25 44.71 73
3 01/28/2025 23:22:58 45.04, 160.41 69.27 01/28/2025 23:22:53 44.98, 160.81 69.08 31.79 5
4 01/29/2025 00:11:10 -49.30, -30.33 107.59 01/29/2025 00:12:22 -49.28, -30.13 107.77 14.73 72
5 01/31/2025 13:02:47 -45.00, 135.40 111.35 01/31/2025 13:02:34 -44.90, 135.86 111.59 37.78 13
6 01/31/2025 13:50:56 48.99, -55.42 71.57 01/31/2025 13:52:02 48.95, -55.17 71.36 19.03 66
7 02/03/2025 02:42:26 45.04, 110.46 68.05 02/03/2025 02:42:07 44.94, 110.98 67.79 42.99 19
8 02/03/2025 03:30:52 -48.47, -80.62 109.47 02/03/2025 03:31:50 -48.44, -80.30 109.68 23.78 58
9 02/05/2025 16:22:12 -45.00, 85.45 112.65 02/05/2025 16:21:46 -44.90, 86.05 112.93 48.47 26



Historial Predications of SNOs between TERRA and METOP-C
